| time (UTC) | temp F | wind direction | speed MPH | gust MPH | rain 1hr in | rain 24hr in | rain mn in | humidity % | barometer mb |
| 20260505224542 | 78 | 74 | 2.0 | 8.0 | 0.00 | 0.00 | 0.00 | 36 | 1013.2 |
| 20260505223054 | 79 | 119 | 4.0 | 12.0 | 0.00 | 0.00 | 0.00 | 36 | 1013.2 |
| 20260505221544 | 79 | 155 | 3.0 | 9.0 | 0.00 | 0.00 | 0.00 | 36 | 1013.4 |
| 20260505220047 | 79 | 194 | 2.0 | 11.0 | 0.00 | 0.00 | 0.00 | 36 | 1013.4 |
| 20260505214601 | 80 | 206 | 3.0 | 10.0 | 0.00 | 0.00 | 0.00 | 35 | 1013.5 |
| 20260505213053 | 79 | 242 | 5.0 | 16.0 | 0.00 | 0.00 | 0.00 | 36 | 1013.7 |
| 20260505211548 | 79 | 159 | 6.0 | 13.0 | 0.00 | 0.00 | 0.00 | 35 | 1013.5 |
| 20260505210051 | 79 | 223 | 3.0 | 10.0 | 0.00 | 0.00 | 0.00 | 36 | 1013.5 |
| 20260505204549 | 79 | 190 | 3.0 | 14.0 | 0.00 | 0.00 | 0.00 | 37 | 1013.5 |
| 20260505203047 | 79 | 229 | 3.0 | 12.0 | 0.00 | 0.00 | 0.00 | 36 | 1013.7 |
| 20260505201557 | 79 | 148 | 6.0 | 15.0 | 0.00 | 0.00 | 0.00 | 35 | 1014.1 |
| 20260505200040 | 80 | 247 | 4.0 | 10.0 | 0.00 | 0.00 | 0.00 | 35 | 1014.2 |
| 20260505194541 | 80 | 153 | 5.0 | 12.0 | 0.00 | 0.00 | 0.00 | 35 | 1014.2 |
| 20260505193045 | 80 | 95 | 3.0 | 9.0 | 0.00 | 0.00 | 0.00 | 37 | 1014.5 |
| 20260505191551 | 79 | 248 | 3.0 | 9.0 | 0.00 | 0.00 | 0.00 | 37 | 1014.9 |
| 20260505190048 | 79 | 238 | 5.0 | 10.0 | 0.00 | 0.00 | 0.00 | 38 | 1015.1 |
| 20260505184600 | 80 | 252 | 3.0 | 13.0 | 0.00 | 0.00 | 0.00 | 36 | 1015.3 |
| 20260505183048 | 80 | 233 | 2.0 | 10.0 | 0.00 | 0.00 | 0.00 | 35 | 1015.7 |
| 20260505181539 | 79 | 88 | 3.0 | 10.0 | 0.00 | 0.00 | 0.00 | 36 | 1015.8 |
| 20260505180049 | 78 | 227 | 6.0 | 12.0 | 0.00 | 0.00 | 0.00 | 37 | 1015.8 |
| 20260505174543 | 78 | 284 | 3.0 | 12.0 | 0.00 | 0.00 | 0.00 | 39 | 1015.8 |
| 20260505173044 | 77 | 242 | 2.0 | 13.0 | 0.00 | 0.00 | 0.00 | 39 | 1015.9 |
| 20260505171550 | 77 | 209 | 3.0 | 11.0 | 0.00 | 0.00 | 0.00 | 39 | 1015.9 |
| 20260505170051 | 77 | 121 | 4.0 | 10.0 | 0.00 | 0.00 | 0.00 | 36 | 1016.3 |
| 20260505164546 | 76 | 139 | 2.0 | 8.0 | 0.00 | 0.00 | 0.00 | 41 | 1016.3 |
| 20260505163042 | 75 | 210 | 4.0 | 10.0 | 0.00 | 0.00 | 0.00 | 44 | 1016.5 |
| 20260505161552 | 75 | 304 | 3.0 | 10.0 | 0.00 | 0.00 | 0.00 | 47 | 1016.5 |
| 20260505153057 | 73 | 225 | 4.0 | 11.0 | 0.00 | 0.00 | 0.00 | 52 | 1016.9 |
| 20260505151546 | 73 | 173 | 1.0 | 8.0 | 0.00 | 0.00 | 0.00 | 55 | 1017.0 |
| 20260505150112 | 71 | 277 | 3.0 | 8.0 | 0.00 | 0.00 | 0.00 | 56 | 1016.8 |
| 20260505124549 | 62 | 172 | 2.0 | 14.0 | 0.00 | 0.00 | 0.00 | 74 | 1016.7 |
| 20260505123100 | 60 | 165 | 2.0 | 7.0 | 0.00 | 0.00 | 0.00 | 76 | 1016.7 |
| 20260505121550 | 59 | 158 | 0.0 | 7.0 | 0.00 | 0.00 | 0.00 | 79 | 1016.7 |
| 20260505120049 | 57 | 215 | 0.0 | 2.0 | 0.00 | 0.00 | 0.00 | 81 | 1016.5 |
| 20260505114558 | 56 | 0 | 0.0 | 3.0 | 0.00 | 0.00 | 0.00 | 81 | 1016.5 |
| 20260505113039 | 55 | 238 | 0.0 | 2.0 | 0.00 | 0.00 | 0.00 | 82 | 1016.3 |
| 20260505111545 | 54 | 157 | 0.0 | 1.0 | 0.00 | 0.00 | 0.00 | 83 | 1016.2 |
| 20260505101547 | 55 | 169 | 0.0 | 1.0 | 0.00 | 0.00 | 0.00 | 80 | 1016.2 |
| 20260505100045 | 54 | 0 | 0.0 | 1.0 | 0.00 | 0.00 | 0.00 | 80 | 1016.0 |
| 20260505094550 | 55 | 0 | 0.0 | 1.0 | 0.00 | 0.00 | 0.00 | 78 | 1015.9 |
| 20260505093047 | 56 | 0 | 0.0 | 0.0 | 0.00 | 0.00 | 0.00 | 76 | 1015.7 |
| 20260505091547 | 56 | 0 | 0.0 | 2.0 | 0.00 | 0.00 | 0.00 | 75 | 1015.6 |
| 20260505090051 | 57 | 0 | 0.0 | 0.0 | 0.00 | 0.00 | 0.00 | 74 | 1015.4 |
| 20260505084540 | 57 | 0 | 0.0 | 1.0 | 0.00 | 0.00 | 0.00 | 73 | 1015.2 |
| 20260505083043 | 57 | 0 | 0.0 | 1.0 | 0.00 | 0.00 | 0.00 | 73 | 1015.1 |
| 20260505081547 | 57 | 0 | 0.0 | 3.0 | 0.00 | 0.00 | 0.00 | 72 | 1015.0 |
| 20260505080050 | 57 | 0 | 0.0 | 3.0 | 0.00 | 0.00 | 0.00 | 71 | 1014.9 |
| 20260505074548 | 57 | 152 | 0.0 | 2.0 | 0.00 | 0.00 | 0.00 | 71 | 1014.9 |
| 20260505073055 | 57 | 0 | 0.0 | 1.0 | 0.00 | 0.00 | 0.00 | 71 | 1014.9 |
| 20260505071544 | 57 | 0 | 0.0 | 1.0 | 0.00 | 0.00 | 0.00 | 70 | 1014.8 |
| 20260505070051 | 57 | 0 | 0.0 | 2.0 | 0.00 | 0.00 | 0.00 | 69 | 1014.7 |
| 20260505064548 | 57 | 0 | 0.0 | 0.0 | 0.00 | 0.00 | 0.00 | 69 | 1014.5 |
| 20260505063048 | 58 | 0 | 0.0 | 1.0 | 0.00 | 0.00 | 0.00 | 67 | 1014.6 |
| 20260505061547 | 59 | 0 | 0.0 | 1.0 | 0.00 | 0.00 | 0.00 | 64 | 1014.8 |
| 20260505060050 | 59 | 222 | 0.0 | 3.0 | 0.00 | 0.00 | 0.00 | 62 | 1014.9 |
| 20260505054547 | 59 | 0 | 0.0 | 2.0 | 0.00 | 0.00 | 0.00 | 62 | 1014.9 |
| 20260505053052 | 58 | 223 | 0.0 | 3.0 | 0.00 | 0.00 | 0.00 | 62 | 1014.8 |
| 20260505051541 | 56 | 0 | 0.0 | 1.0 | 0.00 | 0.00 | 0.00 | 65 | 1015.0 |
| 20260505050122 | 54 | 204 | 0.0 | 3.0 | 0.00 | 0.00 | 0.00 | 68 | 1015.0 |
| 20260505041601 | 57 | 0 | 0.0 | 0.0 | 0.00 | 0.00 | 0.00 | 61 | 1015.0 |
| 20260505040057 | 57 | 0 | 0.0 | 0.0 | 0.00 | 0.00 | 0.00 | 61 | 1015.1 |
| 20260505034548 | 55 | 0 | 0.0 | 0.0 | 0.00 | 0.00 | 0.00 | 63 | 1015.0 |
| 20260505033049 | 55 | 0 | 0.0 | 0.0 | 0.00 | 0.00 | 0.00 | 66 | 1015.1 |
| 20260505031547 | 56 | 0 | 0.0 | 1.0 | 0.00 | 0.00 | 0.00 | 66 | 1015.0 |
| 20260505030048 | 56 | 0 | 0.0 | 1.0 | 0.00 | 0.00 | 0.00 | 64 | 1015.2 |
| 20260505024549 | 56 | 0 | 0.0 | 0.0 | 0.00 | 0.00 | 0.00 | 62 | 1015.2 |
| 20260505023052 | 58 | 0 | 0.0 | 0.0 | 0.00 | 0.00 | 0.00 | 60 | 1015.2 |
| 20260505021549 | 59 | 0 | 0.0 | 0.0 | 0.00 | 0.00 | 0.00 | 58 | 1015.0 |
| 20260505020045 | 60 | 0 | 0.0 | 0.0 | 0.00 | 0.00 | 0.00 | 54 | 1014.9 |
| 20260505014601 | 62 | 0 | 0.0 | 0.0 | 0.00 | 0.00 | 0.00 | 50 | 1014.8 |
| 20260505013044 | 63 | 0 | 0.0 | 1.0 | 0.00 | 0.00 | 0.00 | 48 | 1014.6 |
| 20260505011541 | 62 | 0 | 0.0 | 1.0 | 0.00 | 0.00 | 0.00 | 52 | 1014.3 |
| 20260505010049 | 63 | 0 | 0.0 | 1.0 | 0.00 | 0.00 | 0.00 | 49 | 1014.2 |
| 20260505004549 | 64 | 0 | 0.0 | 0.0 | 0.00 | 0.00 | 0.00 | 47 | 1014.1 |
| 20260505003045 | 67 | 0 | 0.0 | 0.0 | 0.00 | 0.00 | 0.00 | 43 | 1013.9 |
| 20260505001602 | 69 | 0 | 0.0 | 0.0 | 0.00 | 0.00 | 0.00 | 39 | 1013.8 |
| 20260505000115 | 72 | 0 | 0.0 | 0.0 | 0.00 | 0.00 | 0.00 | 35 | 1013.8 |
| 20260504234606 | 74 | 204 | 0.0 | 4.0 | 0.00 | 0.00 | 0.00 | 31 | 1013.5 |
| 20260504233040 | 75 | 162 | 0.0 | 3.0 | 0.00 | 0.00 | 0.00 | 29 | 1013.3 |
| 20260504231546 | 76 | 199 | 3.0 | 9.0 | 0.00 | 0.00 | 0.00 | 28 | 1013.3 |
| 20260504230047 | 76 | 146 | 2.0 | 8.0 | 0.00 | 0.00 | 0.00 | 27 | 1013.1 |